This is the latest recevied weather packets stored in our database for station/object DB0BQ-11. If no packets are shown the sender has not sent any weather packets the latest 10 day(s).
| Time | Temp. | Humidity | Pressure | Rain* | Wind** | Luminosity | Snow |
|---|---|---|---|---|---|---|---|
| 1777762818 | 13.89° C | 97% | 1013.6 hPa | - | - | - | - |
| 1777761032 | 14.44° C | 96% | 1013.9 hPa | - | - | - | - |
| 1777759225 | 14.44° C | 95% | 1013.9 hPa | - | - | - | - |
| 1777757419 | 14.44° C | 95% | 1014.2 hPa | - | - | - | - |
| 1777755030 | 15° C | 94% | 1014.8 hPa | - | - | - | - |
| 1777752622 | 15° C | 90% | 1015.9 hPa | - | - | - | - |
| 1777749651 | 17.78° C | 76% | 1016.2 hPa | - | - | - | - |
| 1777748426 | 18.33° C | 81% | 1014.4 hPa | - | - | - | - |
| 1777741221 | 25° C | 50% | 1014.4 hPa | - | - | - | - |
| 1777736423 | 21.67° C | 62% | 1015.7 hPa | - | - | - | - |
| 1777734035 | 22.78° C | 50% | 1016 hPa | - | - | - | - |
| 1777730422 | 24.44° C | 44% | 1016.6 hPa | - | - | - | - |
| 1777725022 | 25° C | 41% | 1017.2 hPa | - | - | - | - |
| 1777720225 | 23.89° C | 42% | 1018.1 hPa | - | - | - | - |
| 1777716632 | 23.33° C | 40% | 1018.5 hPa | - | - | - | - |
| 1777713621 | 21.67° C | 43% | 1018.9 hPa | - | - | - | - |
| 1777713019 | 21.67° C | 42% | 1019 hPa | - | - | - | - |
| 1777708222 | 20.56° C | 39% | 1019 hPa | - | - | - | - |
| 1777704027 | 17.22° C | 48% | 1019.2 hPa | - | - | - | - |
| 1777695055 | 8.89° C | 77% | 1019.5 hPa | - | - | - | - |
| 1777691422 | 11.11° C | 67% | 1019.7 hPa | - | - | - | - |
| 1777688431 | 10.56° C | 67% | 1020 hPa | - | - | - | - |
| 1777684818 | 10° C | 73% | 1020.6 hPa | - | - | - | - |
| 1777683072 | 10° C | 71% | 1020.9 hPa | - | - | - | - |
| 1777680623 | 10.56° C | 71% | 1021.1 hPa | - | - | - | - |
* Rain since midnight (hover to see other rain measurements)
** Current wind speed in m/s (hover to see current wind gust speed)